Zurück zum Katalog

STARLINK-37555

AktivKommunikationSSO
NORAD 69431·PAYLOAD·🇺🇸 United States

Gestartet Jun 7, 2026 von Vandenberg Space Force Base

Loading…

Nächste Überflüge (nächste 24 Stunden)

TLE

AktuellSource: CelesTrak SupGP

Epoche: Sep 15, 2026, 03:25 UTC

1 69431C 26126M   26258.14284722 -.00007690  00000+0 -23865-3 0  2581
2 69431  97.2845 119.4772 0001998  91.6782 317.6521 15.33449293    10

Verfolge STARLINK-37555 in Echtzeit mit AllMySat

Download on the App Store